Regional Weather Roundup
Issued by NWS

Home | Current Version | Previous Version | Text Only | Print | Product List | Glossary Off
Versions: 1 2 3 4 5 6 7 8 9 10 11 12 13 14 15 16 17 18 19 20 21 22 23 24 25 26 27 28 29 30 31 32 33 34 35 36 37 38 39 40 41 42 43 44 45 46 47 48 49 50

000
ASUS43 KMPX 310301
RWRMN
WEATHER ROUNDUP FOR MINNESOTA
NATIONAL WEATHER SERVICE TWIN CITIES/CHANHASSEN MN
1000 PM CDT SAT JUL 30 2016


NOTE: "FAIR" INDICATES FEW OR NO CLOUDS BELOW 12,000 FEET WITH NO
SIGNIFICANT WEATHER AND/OR OBSTRUCTIONS TO VISIBILITY. N/A MEANS
CURRENT SKY AND/OR WEATHER CONDITIONS ARE NOT AVAILABLE.

MNZ060>063-068>070-310400-
   Twin Cities Metro

CITY           SKY/WX    TMP DP  RH WIND       PRES   REMARKS
TWIN CITIES    PTCLDY    74  64  71 SE8       29.99R
ST PAUL        CLEAR     70  65  84 SE3       29.99R
CRYSTAL        CLEAR     71  61  70 SE6       29.98R
BLAINE         CLEAR     72  63  73 SE5       29.99R
LAKEVILLE      CLEAR     66  66 100 CALM      30.00R
EDEN PRAIRIE   CLEAR     74  64  71 SE5       29.98R
LAKEVILLE      CLEAR     66  66 100 CALM      30.00R
SOUTH ST PAUL  CLEAR     72  64  74 SE3       29.99R
LAKE ELMO      FAIR      68  64  88 CALM      30.01R
$$
MNZ001>005-007-008-013>017-022>024-027-028-310400-
   Northwest Minnesota

CITY           SKY/WX    TMP DP  RH WIND       PRES   REMARKS
BEMIDJI        CLEAR     65  58  80 SE3       29.98R
HALLOCK        CLEAR     70  64  83 S9        29.88S
ROSEAU         CLEAR     66  61  82 S7        29.93R
WARROAD        CLEAR     70  64  83 S5        29.94R
THIEF RVR FALL CLOUDY    69  63  81 SE7       29.94R
CROOKSTON      CLEAR     66  63  88 SE6       29.92R
FOSSTON        CLEAR     64  55  72 SE3       29.96R
DETROIT LAKES  CLEAR     70  59  68 SE3       29.97R
MOORHEAD       CLEAR     68  61  77 S6        29.93R
PARK RAPIDS    CLEAR     71  59  65 SE5       29.98R
MAHNOMEN       FAIR      67  59  74 SE5       29.95R
$$
MNZ006-009>011-018-025>026-310400-
   North Central Minnesota

CITY           SKY/WX    TMP DP  RH WIND       PRES   REMARKS
BAUDETTE       CLEAR     66  59  78 S7        29.96R
FLAG ISLAND    PTCLDY    73  64  73 S12       29.93R
INTL FALLS     CLEAR     62  59  90 SE3       29.99R
WASKISH        CLEAR     64  61  88 CALM      29.97S
BIG FORK       PTCLDY    63  61  94 CALM      30.00S
LONGVILLE      CLEAR     61  59  94 CALM      29.99R
GRAND RAPIDS   CLEAR     62  59  90 SE3       30.03R
ORR            CLEAR     63  57  82 CALM      29.99R
COOK           CLEAR     61  57  88 CALM      30.02R
WALKER         FAIR      63  58  86 CALM      29.98S
$$
MNZ012-019>021-037-310400-
   Northeast Minnesota

CITY           SKY/WX    TMP DP  RH WIND       PRES   REMARKS
DULUTH         PTCLDY    63  59  87 E7        30.03R
ELY            CLEAR     64  57  77 S5        30.03R
HIBBING        CLEAR     59  58  96 CALM      30.02R
EVELETH        CLEAR     63  60  89 CALM      30.04R
DULUTH HARBOR  MOCLDY    64  63  94 NE10      30.03R
TWO HARBORS    CLEAR     64  59  82 NE3       30.02R
SILVER BAY     CLEAR     61  57  88 CALM      30.03R
GRAND MARAIS     N/A     64  56  75 N5        30.04R
G MARAIS ARPRT CLEAR     57  52  82 CALM      30.08S
$$
MNZ029>031-032-039>041-046>048-054>057-064-310400-
   West Central Minnesota

CITY           SKY/WX    TMP DP  RH WIND       PRES   REMARKS
FERGUS FALLS   CLEAR     70  59  68 SE5       29.97R
WHEATON        CLEAR     64  61  88 SE7       29.96R
MORRIS         CLEAR     66  61  82 SE6       29.95R
ALEXANDRIA     CLEAR     68  58  70 SE3       29.99R
ELBOW LAKE     FAIR      67  60  77 SE5       29.97R
WADENA         CLEAR     63  59  88 CALM      29.98R
GLENWOOD       CLEAR     64  59  82 SE5       29.99R
APPLETON       CLEAR     66  59  77 SE5       29.95R
BENSON         CLEAR     70  55  60 SE3       29.96R
ORTONVILLE     CLEAR     68  57  68 SE6       29.94R
MADISON        CLEAR     64  57  77 SE7       29.95R
WILLMAR        FAIR      66  61  82 SE3       29.98S
$$
MNZ033>034-036-042>043-049>051-058-059-310400-
   Central Minnesota

CITY           SKY/WX    TMP DP  RH WIND       PRES   REMARKS
ST CLOUD       PTCLDY    71  64  78 SE7       29.98R
SAUK CENTRE    FAIR      64  60  86 CALM      29.98R
PAYNESVILLE    CLEAR     65  60  84 CALM      29.98R
AITKIN         CLEAR     66  59  77 CALM      29.99R
PINE RIVER     CLEAR     64  61  88 CALM      30.02R
BRAINERD       CLEAR     69  63  81 SE3       29.99R
STAPLES        PTCLDY    70  61  73 CALM      29.98R
LONG PRAIRIE   FAIR      63  61  94 CALM      29.99R
LITTLE FALLS   PTCLDY    68  61  77 SE3       29.99R
LITCHFIELD     CLEAR     70  64  83 CALM      29.99R
BUFFALO        CLEAR     69  63  82 CALM      29.99S
MAPLE LAKE     CLEAR     71  67  87 CALM      30.00R
HUTCHINSON     CLEAR     69  64  83 E6        29.99R
$$
MNZ037-044-045-052-053-310400-
   East Central Minnesota

CITY           SKY/WX    TMP DP  RH WIND       PRES   REMARKS
PRINCETON      MOCLDY    70  63  78 E3        29.99S
MORA           CLEAR     64  63  94 CALM      30.02R
CAMBRIDGE      MOCLDY    70  59  68 CALM      29.98R
RUSH CITY      RAIN      64  62  93 CALM      30.00R
MOOSE LAKE     PTCLDY    64  61  88 CALM      30.00R
HINCKLEY       FAIR      63  63 100 CALM      30.00R
CLOQUET        CLEAR     63  55  77 E3        30.03S
MCGREGOR       CLEAR     64  61  88 E7        30.01R
$$
MNZ071>073-080-081-089-090-097-098-310400-
   Southwest Minnesota

CITY           SKY/WX    TMP DP  RH WIND       PRES   REMARKS
MONTEVIDEO     CLEAR     66  59  77 S3        29.98R
GRANITE FALLS  CLEAR     71  60  68 E5        29.98R
CANBY          CLEAR     67  61  81 E5        29.97R
MARSHALL       CLEAR     70  61  73 S6        29.97R
REDWOOD FALLS  CLEAR     71  59  65 E5        29.96R
OLIVIA         CLEAR     70  59  68 CALM      29.97R
PIPESTONE      CLEAR     70  61  73 SE3       29.98R
WINDOM         PTCLDY    70  63  78 E5        29.99R
WORTHINGTON    CLEAR     68  61  78 SE5       29.99R
JACKSON        CLEAR     68  61  77 SE5       30.00R
TRACY          CLEAR     69  62  78 S3        29.98R
SLAYTON        CLEAR     65  61  85 CALM      30.00R
$$
MNZ065>067-074>077-082>085-091>093-310400-
   South Central Minnesota

CITY           SKY/WX    TMP DP  RH WIND       PRES   REMARKS
MANKATO        CLEAR     72  63  73 SE5       29.99R
NEW ULM        CLEAR     70  64  83 SE5       29.98R
ST JAMES       CLEAR     64  61  88 E5        29.99R
FAIRMONT       CLEAR     66  61  82 E6        29.98R
GLENCOE        CLEAR     71  68  91 E3        29.98R
FARIBAULT      CLOUDY    70  64  83 SE6       30.00R
OWATONNA       PTCLDY    68  63  83 SE5       30.00S
WASECA         PTCLDY    66  63  88 E6        30.01R
ALBERT LEA     CLEAR     68  64  88 E7        30.00S
$$
MNZ078>079-086>088-094>096-310400-
   Southeast Minnesota

CITY           SKY/WX    TMP DP  RH WIND       PRES   REMARKS
ROCHESTER      CLOUDY    67  66  97 SE6       30.02S
RED WING       CLEAR     68  64  88 CALM      29.99R
STANTON        PTCLDY    68  63  83 CALM      29.98R
DODGE CENTER   CLOUDY    63  61  94 SE3       30.02R
WINONA         CLEAR     70  64  83 SE5       30.01R
AUSTIN         CLEAR     66  63  88 CALM      30.01R
PRESTON        MOCLDY    69  62  76 SE5       30.03R
$$
ABBREVIATIONS USED IN REMARKS
   TC - TEMPERATURES IN CELSIUS
  WCI - WIND CHILL INDEX
   HX - HEAT INDEX
  VSB - VISIBILITY
$$



USA.gov is the U.S. government's official web portal to all federal, state and local government web resources and services.